Вернуться в каталог

FENGYUN 1C DEB

АктивенSSO
NORAD 30298·DEBRIS·🇨🇳 China

Запущен May 10, 1999 с Taiyuan Satellite Launch Center

Loading…

Ближайшие Пролёты (ближайшие 24 часа)

TLE

СвежийSource: Space-Track

Эпоха: Sep 14, 2026, 05:33 UTC

1 30298U 99025ZK  26257.23181383  .00002160  00000-0  98994-3 0  9999
2 30298  99.0008 358.2438 0046328  60.6883 329.6563 14.21861633  7407

Отслеживайте FENGYUN 1C DEB в реальном времени с AllMySat

Download on the App Store